timestamp,wind_dir_avg,wind_spd_max_dir,wind_spd_avg,wind_spd_gust,battery_voltage,lat,long
2019-01-31 00:00:00+00:00,127.0,126.0,3.79,5.59,,47.59359,-54.27349
2019-01-31 00:10:00+00:00,143.0,146.0,5.06,6.68,,47.59359,-54.27349
2019-01-31 00:20:00+00:00,138.0,135.0,4.84,6.24,,47.59359,-54.27349
2019-01-31 00:30:00+00:00,135.0,131.0,6.28,7.86,,47.59359,-54.27349
2019-01-31 00:40:00+00:00,135.0,136.0,4.69,5.82,,47.59359,-54.27349
2019-01-31 00:50:00+00:00,144.0,146.0,5.12,5.93,,47.59359,-54.27349
2019-01-31 01:00:00+00:00,135.0,133.0,6.01,7.2,,47.59359,-54.27349
2019-01-31 01:10:00+00:00,132.0,136.0,5.81,7.63,,47.59359,-54.27349
2019-01-31 01:20:00+00:00,132.0,130.0,4.6,6.21,,47.59359,-54.27349
2019-01-31 01:30:00+00:00,134.0,118.0,5.16,6.46,,47.59359,-54.27349
2019-01-31 01:40:00+00:00,136.0,135.0,6.03,7.37,,47.59359,-54.27349
2019-01-31 01:50:00+00:00,142.0,148.0,4.4,6.5,,47.59359,-54.27349
2019-01-31 02:00:00+00:00,140.0,132.0,4.53,5.59,,47.59359,-54.27349
2019-01-31 02:10:00+00:00,122.0,119.0,2.87,4.97,,47.59359,-54.27349
2019-01-31 02:20:00+00:00,127.0,122.0,2.63,3.93,,47.59359,-54.27349
2019-01-31 02:30:00+00:00,147.0,154.0,4.47,5.48,,47.59359,-54.27349
2019-01-31 02:40:00+00:00,146.0,139.0,5.16,5.92,,47.59359,-54.27349
2019-01-31 02:50:00+00:00,150.0,153.0,3.86,4.79,,47.59359,-54.27349
2019-01-31 03:00:00+00:00,141.0,148.0,2.92,3.69,,47.59359,-54.27349
2019-01-31 03:10:00+00:00,138.0,138.0,3.7,4.51,,47.59359,-54.27349
2019-01-31 03:20:00+00:00,154.0,166.0,4.45,5.29,,47.59359,-54.27349
2019-01-31 03:30:00+00:00,152.0,158.0,3.75,4.57,,47.59359,-54.27349
2019-01-31 03:40:00+00:00,165.0,169.0,4.78,5.38,,47.59359,-54.27349
2019-01-31 03:50:00+00:00,177.0,169.0,5.72,6.94,,47.59359,-54.27349
2019-01-31 04:00:00+00:00,170.0,168.0,5.41,6.4,,47.59359,-54.27349
2019-01-31 04:10:00+00:00,166.0,174.0,5.23,6.16,,47.59359,-54.27349
2019-01-31 04:20:00+00:00,174.0,177.0,5.78,6.55,,47.59359,-54.27349
2019-01-31 04:30:00+00:00,163.0,160.0,5.5,6.81,,47.59359,-54.27349
2019-01-31 04:40:00+00:00,166.0,163.0,6.67,7.34,,47.59359,-54.27349
2019-01-31 04:50:00+00:00,167.0,165.0,7.17,8.12,,47.59359,-54.27349
2019-01-31 05:00:00+00:00,168.0,173.0,6.78,7.49,,47.59359,-54.27349
2019-01-31 05:10:00+00:00,171.0,165.0,7.28,8.13,,47.59359,-54.27349
2019-01-31 05:20:00+00:00,171.0,172.0,6.48,7.22,,47.59359,-54.27349
2019-01-31 05:30:00+00:00,170.0,170.0,7.14,7.73,,47.59359,-54.27349
2019-01-31 05:40:00+00:00,171.0,175.0,7.31,7.91,,47.59359,-54.27349
2019-01-31 05:50:00+00:00,172.0,167.0,6.06,6.82,,47.59359,-54.27349
2019-01-31 06:00:00+00:00,176.0,180.0,6.16,6.76,,47.59359,-54.27349
2019-01-31 06:10:00+00:00,170.0,172.0,6.25,6.72,,47.59359,-54.27349
2019-01-31 06:20:00+00:00,167.0,168.0,5.78,7.36,,47.59359,-54.27349
2019-01-31 06:30:00+00:00,174.0,171.0,6.4,7.04,,47.59359,-54.27349
2019-01-31 06:40:00+00:00,173.0,174.0,5.91,6.63,,47.59359,-54.27349
2019-01-31 06:50:00+00:00,172.0,167.0,4.93,5.46,,47.59359,-54.27349
2019-01-31 07:00:00+00:00,173.0,177.0,6.28,6.91,,47.59359,-54.27349
2019-01-31 07:10:00+00:00,173.0,174.0,5.98,7.56,,47.59359,-54.27349
2019-01-31 07:20:00+00:00,179.0,182.0,5.58,6.98,,47.59359,-54.27349
2019-01-31 07:30:00+00:00,182.0,185.0,5.17,5.82,,47.59359,-54.27349
2019-01-31 07:40:00+00:00,179.0,184.0,4.27,4.57,,47.59359,-54.27349
2019-01-31 07:50:00+00:00,187.0,185.0,4.2,4.55,,47.59359,-54.27349
2019-01-31 08:00:00+00:00,176.0,173.0,4.3,4.65,,47.59359,-54.27349
2019-01-31 08:10:00+00:00,161.0,162.0,4.27,4.62,,47.59359,-54.27349
2019-01-31 08:20:00+00:00,177.0,179.0,4.57,4.85,,47.59359,-54.27349
2019-01-31 08:30:00+00:00,183.0,185.0,3.83,4.14,,47.59359,-54.27349
2019-01-31 08:40:00+00:00,183.0,182.0,3.16,3.57,,47.59359,-54.27349
2019-01-31 08:50:00+00:00,197.0,195.0,2.66,2.96,,47.59359,-54.27349
2019-01-31 10:40:00+00:00,204.0,205.0,3.44,3.91,,47.59359,-54.27349
2019-01-31 10:50:00+00:00,209.0,208.0,2.94,3.18,,47.59359,-54.27349
2019-01-31 11:50:00+00:00,232.0,229.0,6.96,7.97,,47.59359,-54.27349
2019-01-31 12:00:00+00:00,229.0,230.0,8.55,9.71,,47.59359,-54.27349
2019-01-31 12:10:00+00:00,231.0,235.0,9.03,10.05,,47.59359,-54.27349
2019-01-31 12:20:00+00:00,233.0,233.0,8.96,10.48,,47.59359,-54.27349
2019-01-31 12:30:00+00:00,235.0,236.0,10.05,10.81,,47.59359,-54.27349
2019-01-31 12:40:00+00:00,228.0,228.0,9.49,10.93,,47.59359,-54.27349
2019-01-31 12:50:00+00:00,226.0,225.0,8.76,10.26,,47.59359,-54.27349
2019-01-31 13:00:00+00:00,226.0,226.0,10.42,11.84,,47.59359,-54.27349
2019-01-31 13:10:00+00:00,227.0,229.0,10.33,11.22,,47.59359,-54.27349
2019-01-31 13:20:00+00:00,226.0,230.0,7.37,9.59,,47.59359,-54.27349
2019-01-31 13:30:00+00:00,230.0,235.0,8.34,9.08,,47.59359,-54.27349
2019-01-31 13:40:00+00:00,228.0,231.0,8.16,8.96,,47.59359,-54.27349
2019-01-31 13:50:00+00:00,240.0,230.0,6.83,8.16,,47.59359,-54.27349
2019-01-31 14:00:00+00:00,244.0,242.0,6.58,7.47,,47.59359,-54.27349
2019-01-31 14:10:00+00:00,240.0,239.0,6.46,7.44,,47.59359,-54.27349
2019-01-31 14:20:00+00:00,253.0,249.0,7.48,8.2,,47.59359,-54.27349
2019-01-31 14:30:00+00:00,252.0,255.0,7.27,8.5,,47.59359,-54.27349
2019-01-31 14:40:00+00:00,241.0,248.0,5.97,6.77,,47.59359,-54.27349
2019-01-31 14:50:00+00:00,239.0,250.0,6.33,7.74,,47.59359,-54.27349
2019-01-31 15:00:00+00:00,227.0,232.0,5.82,7.03,,47.59359,-54.27349
2019-01-31 15:10:00+00:00,236.0,238.0,6.68,7.38,,47.59359,-54.27349
2019-01-31 15:20:00+00:00,236.0,240.0,6.69,7.72,,47.59359,-54.27349
2019-01-31 15:30:00+00:00,244.0,254.0,6.47,7.95,,47.59359,-54.27349
2019-01-31 15:40:00+00:00,251.0,252.0,6.9,7.72,,47.59359,-54.27349
2019-01-31 15:50:00+00:00,245.0,241.0,7.31,9.06,,47.59359,-54.27349
2019-01-31 16:00:00+00:00,241.0,239.0,7.85,9.6,,47.59359,-54.27349
2019-01-31 16:10:00+00:00,243.0,249.0,7.55,9.07,,47.59359,-54.27349
2019-01-31 16:20:00+00:00,242.0,244.0,7.09,8.19,,47.59359,-54.27349
2019-01-31 16:30:00+00:00,239.0,247.0,6.09,7.32,,47.59359,-54.27349
2019-01-31 16:40:00+00:00,227.0,226.0,6.12,7.23,,47.59359,-54.27349
2019-01-31 16:50:00+00:00,228.0,232.0,8.18,9.28,,47.59359,-54.27349
2019-01-31 17:00:00+00:00,225.0,225.0,8.6,9.66,,47.59359,-54.27349
2019-01-31 17:10:00+00:00,230.0,231.0,8.5,9.52,,47.59359,-54.27349
2019-01-31 17:20:00+00:00,236.0,237.0,8.81,9.75,,47.59359,-54.27349
2019-01-31 17:30:00+00:00,232.0,238.0,7.02,8.32,,47.59359,-54.27349
2019-01-31 17:40:00+00:00,231.0,225.0,7.48,8.6,,47.59359,-54.27349
2019-01-31 17:50:00+00:00,232.0,237.0,7.76,9.08,,47.59359,-54.27349
2019-01-31 18:00:00+00:00,231.0,230.0,9.42,10.85,,47.59359,-54.27349
2019-01-31 18:10:00+00:00,229.0,223.0,9.97,11.64,,47.59359,-54.27349
2019-01-31 18:20:00+00:00,230.0,227.0,10.94,12.05,,47.59359,-54.27349
2019-01-31 18:30:00+00:00,229.0,232.0,11.6,13.3,,47.59359,-54.27349
2019-01-31 18:40:00+00:00,228.0,227.0,11.23,12.93,,47.59359,-54.27349
2019-01-31 18:50:00+00:00,229.0,230.0,9.91,12.1,,47.59359,-54.27349
2019-01-31 19:00:00+00:00,227.0,228.0,10.64,12.09,,47.59359,-54.27349
2019-01-31 19:10:00+00:00,227.0,226.0,11.83,13.0,,47.59359,-54.27349
2019-01-31 19:20:00+00:00,223.0,224.0,11.88,12.84,,47.59359,-54.27349
2019-01-31 19:30:00+00:00,228.0,223.0,12.13,13.77,,47.59359,-54.27349
2019-01-31 19:40:00+00:00,228.0,232.0,12.17,14.4,,47.59359,-54.27349
2019-01-31 19:50:00+00:00,230.0,232.0,12.58,14.23,,47.59359,-54.27349
2019-01-31 20:00:00+00:00,233.0,232.0,11.94,13.87,,47.59359,-54.27349
2019-01-31 20:10:00+00:00,233.0,231.0,11.02,12.71,,47.59359,-54.27349
2019-01-31 20:20:00+00:00,233.0,238.0,10.93,12.7,,47.59359,-54.27349
2019-01-31 20:30:00+00:00,232.0,231.0,11.48,13.43,,47.59359,-54.27349
2019-01-31 20:40:00+00:00,227.0,229.0,12.1,13.66,,47.59359,-54.27349
2019-01-31 20:50:00+00:00,227.0,221.0,12.49,13.91,,47.59359,-54.27349
2019-01-31 21:00:00+00:00,229.0,234.0,12.89,15.49,,47.59359,-54.27349
2019-01-31 21:10:00+00:00,232.0,237.0,12.86,15.45,,47.59359,-54.27349
2019-01-31 21:20:00+00:00,267.0,266.0,15.75,18.05,,47.59359,-54.27349
2019-01-31 21:30:00+00:00,265.0,262.0,15.97,19.96,,47.59359,-54.27349
2019-01-31 21:40:00+00:00,260.0,257.0,15.68,17.79,,47.59359,-54.27349
2019-01-31 21:50:00+00:00,255.0,255.0,18.04,20.69,,47.59359,-54.27349
2019-01-31 22:00:00+00:00,259.0,265.0,13.72,17.46,,47.59359,-54.27349
2019-01-31 22:10:00+00:00,266.0,268.0,16.58,19.73,,47.59359,-54.27349
2019-01-31 22:20:00+00:00,278.0,276.0,12.84,15.1,,47.59359,-54.27349
2019-01-31 22:30:00+00:00,281.0,283.0,14.43,16.45,,47.59359,-54.27349
2019-01-31 22:40:00+00:00,272.0,273.0,16.82,19.84,,47.59359,-54.27349
2019-01-31 22:50:00+00:00,271.0,274.0,14.83,17.23,,47.59359,-54.27349
2019-01-31 23:00:00+00:00,275.0,272.0,13.17,17.05,,47.59359,-54.27349
2019-01-31 23:10:00+00:00,268.0,264.0,15.86,18.32,,47.59359,-54.27349
2019-01-31 23:20:00+00:00,276.0,278.0,15.94,18.36,,47.59359,-54.27349
2019-01-31 23:30:00+00:00,274.0,271.0,15.28,18.09,,47.59359,-54.27349
2019-01-31 23:40:00+00:00,270.0,270.0,14.92,16.76,,47.59359,-54.27349
2019-01-31 23:50:00+00:00,269.0,264.0,12.74,14.17,,47.59359,-54.27349
